カタログに戻る

STARLINK-5044

運用中通信VLEO
NORAD 53898·PAYLOAD·🇺🇸 United States

打ち上げ Sep 24, 2022 から Cape Canaveral Space Force Station

Loading…

次のパス (今後24時間)

TLE

最新Source: CelesTrak SupGP

元期: Sep 15, 2026, 02:31 UTC

1 53898C 22119N   26258.10534722 -.00009665  00000+0 -29331-3 0  2581
2 53898  53.1595 188.5428 0001710  87.4396 359.0421 15.33548042    15

AllMySatでSTARLINK-5044をリアルタイム追跡

Download on the App Store